Weather in Wuppertal

Germany     51°15′53″N   7°10′57″E
temp.,
°C
wind,
m/s
gust,
m/s
humid.,
%
clouds,
%
prec.,
mm/h
press.,
hPa
HPBL,
m
15 april, thu
thu1523:00−1nne118943 0.1 103016
02:00−2nne11955 0.1 103018
05:00−2ne22965 0.0 103023
08:000ne23865 0.0 1031128
11:00+5nne345524 0.0 10301240
14:00+8ne344497 0.1 10291977
17:00+7ne454495 0.0 10281680
20:00+4ne385961 0.0 1029284
16 april, fri
fri1623:000ne227830 0.0 103034
02:000ne259193 0.0 102992
05:000ne239294 0.0 102987
08:00+2nne2676100 0.0 1029269
11:00+6nne4756100 0.0 10281025
14:00+9nne474682 0.0 10271770
17:00+9ne3654100 0.0 10261480
20:00+5ne2570100 0.0 102693
17 april, sat
sat1723:00+3nne237784 0.0 102755
02:00+2ne268191 0.0 1027129
05:00−1ne239025 0.0 102767
08:00+2nne257748 0.0 1027160
11:00+8nne354814 0.0 1026988
14:00+10nne454439 0.0 10241418
17:00+10nne4654100 0.0 10231496
20:00+6ne3780100 0.0 1023583
18 april, sun
sun1823:00+5ene3785100 0.0 1025371
02:00+3ene119368 0.0 102526
05:00+2ene119083 0.0 102525
08:00+4ne1282100 0.0 1025105
11:00+9ne2368100 0.0 1025659
14:00+9ne2373100 0.3 1024809
17:00+10nne2475100 0.6 1023543
20:00+8nne238779 0.8 102457
19 april, mon
mon1923:00+6ene129342 0.0 102426
02:00+4ne129760 0.0 102422
05:00+4ne219860 0.0 102323
08:00+6nne139418 0.0 1023119
11:00+9ne347499 0.1 1022730
14:00+12ne335868 0.1 10211396
17:00+13ne225569 0.1 10191384
20:00+9ne267790 0.1 1019208